TimeEDT,TemperatureF,Dew PointF,Humidity,Sea Level PressureIn,VisibilityMPH,Wind Direction,Wind SpeedMPH,Gust SpeedMPH,PrecipitationIn,Events,Conditions,WindDirDegrees,DateUTC
12:15 AM,66.2,66.2,100,29.62,5.0,SSW,4.6,-,0.01,,Overcast,200,2013-09-13 04:15:00
12:35 AM,66.2,66.2,100,29.61,4.0,Calm,Calm,-,0.02,,Overcast,0,2013-09-13 04:35:00
12:55 AM,66.2,66.2,100,29.62,5.0,SW,4.6,-,0.03,,Mostly Cloudy,220,2013-09-13 04:55:00
1:15 AM,66.2,66.2,100,29.62,7.0,WSW,5.8,-,0.02,,Overcast,240,2013-09-13 05:15:00
1:35 AM,66.2,64.4,94,29.62,9.0,SW,6.9,-,0.03,,Overcast,230,2013-09-13 05:35:00
1:55 AM,66.2,64.4,94,29.60,10.0,SW,4.6,-,0.06,,Overcast,230,2013-09-13 05:55:00
2:15 AM,66.2,64.4,94,29.57,10.0,Calm,Calm,-,0.02,,Overcast,0,2013-09-13 06:15:00
2:35 AM,64.4,62.6,94,29.57,9.0,West,3.5,-,0.03,,Scattered Clouds,260,2013-09-13 06:35:00
2:55 AM,64.4,62.6,94,29.56,10.0,Calm,Calm,-,0.04,,Partly Cloudy,0,2013-09-13 06:55:00
3:15 AM,64.4,62.6,94,29.57,10.0,Calm,Calm,-,N/A,,Mostly Cloudy,0,2013-09-13 07:15:00
3:35 AM,64.4,62.6,94,29.57,9.0,South,3.5,-,N/A,,Overcast,190,2013-09-13 07:35:00
3:55 AM,64.4,62.6,94,29.58,8.0,Calm,Calm,-,0.01,,Mostly Cloudy,0,2013-09-13 07:55:00
4:15 AM,64.4,62.6,94,29.58,7.0,Calm,Calm,-,N/A,,Overcast,0,2013-09-13 08:15:00
4:35 AM,64.4,62.6,94,29.58,8.0,Calm,Calm,-,N/A,,Mostly Cloudy,0,2013-09-13 08:35:00
4:55 AM,64.4,62.6,94,29.58,9.0,Calm,Calm,-,0.01,,Mostly Cloudy,0,2013-09-13 08:55:00
5:15 AM,64.4,62.6,94,29.58,9.0,Calm,Calm,-,0.01,,Mostly Cloudy,0,2013-09-13 09:15:00
5:35 AM,64.4,62.6,94,29.59,9.0,Calm,Calm,-,0.01,,Mostly Cloudy,0,2013-09-13 09:35:00
5:55 AM,64.4,62.6,94,29.58,1.0,Calm,Calm,-,0.01,,Overcast,0,2013-09-13 09:55:00
6:15 AM,64.4,62.6,94,29.59,0.5,Calm,Calm,-,0.02,,Overcast,0,2013-09-13 10:15:00
6:35 AM,64.4,62.6,94,29.59,0.2,Calm,Calm,-,0.03,,Overcast,0,2013-09-13 10:35:00
6:55 AM,64.4,64.4,100,29.60,0.2,Calm,Calm,-,0.04,,Overcast,0,2013-09-13 10:55:00
7:15 AM,64.4,64.4,100,29.60,0.5,Calm,Calm,-,0.01,,Overcast,0,2013-09-13 11:15:00
7:35 AM,64.4,64.4,100,29.60,3.0,Calm,Calm,-,0.03,,Overcast,0,2013-09-13 11:35:00
7:55 AM,64.4,64.4,100,29.60,4.0,Calm,Calm,-,0.04,,Overcast,0,2013-09-13 11:55:00
8:15 AM,64.4,64.4,100,29.60,5.0,SW,3.5,-,N/A,,Overcast,220,2013-09-13 12:15:00
8:35 AM,64.4,64.4,100,29.61,9.0,Calm,Calm,-,0.01,,Overcast,0,2013-09-13 12:35:00
8:55 AM,64.4,64.4,100,29.60,5.0,Calm,Calm,-,0.03,,Overcast,0,2013-09-13 12:55:00
9:15 AM,66.2,64.4,94,29.61,8.0,Calm,Calm,-,0.01,,Overcast,0,2013-09-13 13:15:00
9:35 AM,66.2,64.4,94,29.61,10.0,Calm,Calm,-,0.01,,Mostly Cloudy,0,2013-09-13 13:35:00
9:55 AM,66.2,64.4,94,29.61,9.0,Calm,Calm,-,0.02,,Mostly Cloudy,0,2013-09-13 13:55:00
10:15 AM,64.4,64.4,100,29.61,4.0,Calm,Calm,-,0.04,,Overcast,0,2013-09-13 14:15:00
10:35 AM,64.4,64.4,100,29.61,4.0,Calm,Calm,-,0.09,,Overcast,0,2013-09-13 14:35:00
10:55 AM,64.4,62.6,94,29.60,5.0,Calm,Calm,-,0.13,,Overcast,0,2013-09-13 14:55:00
11:15 AM,64.4,64.4,100,29.60,6.0,Calm,Calm,-,0.02,,Overcast,0,2013-09-13 15:15:00
11:55 AM,64.4,64.4,100,29.60,8.0,NNE,3.5,-,0.03,,Overcast,30,2013-09-13 15:55:00
12:15 PM,64.4,62.6,94,29.60,5.0,North,10.4,-,0.02,,Overcast,10,2013-09-13 16:15:00
12:35 PM,64.4,62.6,94,29.59,7.0,NNE,6.9,-,0.05,,Overcast,20,2013-09-13 16:35:00
1:15 PM,64.4,62.6,94,29.59,3.0,NNE,5.8,-,N/A,,Overcast,30,2013-09-13 17:15:00
1:35 PM,64.4,62.6,94,29.58,4.0,North,8.1,-,N/A,,Overcast,10,2013-09-13 17:35:00
1:55 PM,64.4,62.6,94,29.58,5.0,NE,5.8,-,N/A,,Overcast,40,2013-09-13 17:55:00
2:15 PM,62.6,60.8,94,29.58,5.0,NNE,8.1,-,N/A,,Overcast,20,2013-09-13 18:15:00
2:35 PM,64.4,62.6,94,29.58,3.0,NNE,6.9,-,N/A,,Mostly Cloudy,30,2013-09-13 18:35:00
2:55 PM,64.4,62.6,94,29.57,2.5,North,8.1,-,0.12,,Overcast,360,2013-09-13 18:55:00
3:15 PM,64.4,62.6,94,29.57,5.0,North,10.4,-,0.06,,Overcast,10,2013-09-13 19:15:00
3:35 PM,64.4,60.8,88,29.57,4.0,North,8.1,-,0.08,,Mostly Cloudy,10,2013-09-13 19:35:00
3:55 PM,64.4,60.8,88,29.57,4.0,North,11.5,-,0.10,,Overcast,10,2013-09-13 19:55:00
4:15 PM,62.6,60.8,94,29.58,4.0,North,9.2,-,0.02,,Overcast,10,2013-09-13 20:15:00
4:35 PM,62.6,60.8,94,29.58,4.0,North,6.9,-,0.06,,Overcast,360,2013-09-13 20:35:00
4:55 PM,62.6,60.8,94,29.58,5.0,NNW,6.9,-,0.15,,Mostly Cloudy,340,2013-09-13 20:55:00
5:15 PM,62.6,60.8,94,29.59,8.0,NNW,8.1,-,0.09,,Overcast,340,2013-09-13 21:15:00
5:35 PM,62.6,60.8,94,29.59,8.0,NW,6.9,-,0.17,,Overcast,310,2013-09-13 21:35:00
5:55 PM,62.6,60.8,94,29.59,9.0,NNW,10.4,-,0.20,,Overcast,330,2013-09-13 21:55:00
6:15 PM,62.6,60.8,94,29.60,9.0,NNW,9.2,-,0.03,,Overcast,330,2013-09-13 22:15:00
6:35 PM,62.6,60.8,94,29.60,10.0,NNW,12.7,-,0.04,,Overcast,340,2013-09-13 22:35:00
6:55 PM,62.6,60.8,94,29.60,10.0,NNW,11.5,17.3,0.04,,Overcast,340,2013-09-13 22:55:00
7:15 PM,62.6,59.0,88,29.61,10.0,NNW,11.5,-,N/A,,Overcast,330,2013-09-13 23:15:00
7:35 PM,60.8,59.0,94,29.63,5.0,WNW,10.4,-,0.01,,Overcast,300,2013-09-13 23:35:00
7:55 PM,60.8,59.0,94,29.65,5.0,WNW,10.4,-,0.03,,Overcast,300,2013-09-13 23:55:00
8:15 PM,60.8,59.0,94,29.66,7.0,NW,11.5,16.1,0.11,,Mostly Cloudy,310,2013-09-14 00:15:00
8:35 PM,60.8,57.2,88,29.67,10.0,NW,8.1,-,0.19,,Overcast,320,2013-09-14 00:35:00
8:55 PM,60.8,57.2,88,29.65,10.0,North,12.7,18.4,0.25,,Overcast,360,2013-09-14 00:55:00
9:15 PM,60.8,57.2,88,29.64,10.0,North,13.8,19.6,0.03,,Overcast,10,2013-09-14 01:15:00
9:35 PM,60.8,57.2,88,29.62,10.0,NNE,13.8,-,0.03,,Mostly Cloudy,20,2013-09-14 01:35:00
9:55 PM,60.8,57.2,88,29.65,10.0,WNW,8.1,-,0.04,,Overcast,290,2013-09-14 01:55:00
10:15 PM,60.8,57.2,88,29.66,10.0,WNW,5.8,-,N/A,,Overcast,290,2013-09-14 02:15:00
10:35 PM,59.0,57.2,94,29.66,10.0,West,6.9,-,N/A,,Mostly Cloudy,270,2013-09-14 02:35:00
10:55 PM,59.0,57.2,94,29.66,10.0,WNW,9.2,-,N/A,,Scattered Clouds,300,2013-09-14 02:55:00
11:15 PM,59.0,57.2,94,29.67,10.0,NW,5.8,-,N/A,,Mostly Cloudy,320,2013-09-14 03:15:00
11:35 PM,59.0,57.2,94,29.67,10.0,NW,6.9,-,N/A,,Scattered Clouds,310,2013-09-14 03:35:00
11:55 PM,59.0,55.4,88,29.67,10.0,NW,6.9,-,N/A,,Clear,310,2013-09-14 03:55:00